Location: Malvern Link
(52.1333°N, 2.3000°W)
Time: 16:03:49
(UTC+00:00)

Cosmos 1634 Rocket - Pass Details

Date: 04 December 2021
Orbit: 959 x 993 km, 82.9° (Epoch: 23 January)

Event Time Altitude Azimuth Distance (km) Brightness Sun altitude
Rises 17:35:22 0° 176° (S) 3,694 7.2 -13.9°
Reaches altitude 10° 17:37:54 10° 174° (S) 2,751 6.5 -14.3°
Maximum altitude 17:44:08 65° 94° (E) 1,091 4.0 -15.2°
Drops below altitude 10° 17:50:25 10° 15° (NNE) 2,767 6.1 -16.1°
Sets 17:52:57 0° 12° (NNE) 3,717 6.8 -16.5°
